[{"OBJECT_NAME":"GSAT0202 (GALILEO 6)","OBJECT_ID":"2014-050B","EPOCH":"2026-09-11T08:53:55.337568","MEAN_MOTION":1.85520202,"ECCENTRICITY":0.16877405,"INCLINATION":48.8022,"RA_OF_ASC_NODE":268.9798,"ARG_OF_PERICENTER":183.432,"MEAN_ANOMALY":175.2535,"EPHEMERIS_TYPE":0,"CLASSIFICATION_TYPE":"U","NORAD_CAT_ID":40129,"ELEMENT_SET_NO":999,"REV_AT_EPOCH":8208,"BSTAR":0,"MEAN_MOTION_DOT":-2.9e-7,"MEAN_MOTION_DDOT":0},{"OBJECT_NAME":"GPS BIIF-8","OBJECT_ID":"2014-068A","EPOCH":"2026-09-11T16:16:45.761088","MEAN_MOTION":2.00556705,"ECCENTRICITY":0.00670688,"INCLINATION":57.0446,"RA_OF_ASC_NODE":27.6301,"ARG_OF_PERICENTER":73.7719,"MEAN_ANOMALY":286.9591,"EPHEMERIS_TYPE":0,"CLASSIFICATION_TYPE":"U","NORAD_CAT_ID":40294,"ELEMENT_SET_NO":999,"REV_AT_EPOCH":8694,"BSTAR":0,"MEAN_MOTION_DOT":-9.1e-7,"MEAN_MOTION_DDOT":0},{"OBJECT_NAME":"GLONASS-K 2","OBJECT_ID":"2014-075A","EPOCH":"2026-09-11T15:27:54.239328","MEAN_MOTION":2.13101274,"ECCENTRICITY":0.00221915,"INCLINATION":63.6173,"RA_OF_ASC_NODE":187.3806,"ARG_OF_PERICENTER":210.5501,"MEAN_ANOMALY":149.3143,"EPHEMERIS_TYPE":0,"CLASSIFICATION_TYPE":"U","NORAD_CAT_ID":40315,"ELEMENT_SET_NO":999,"REV_AT_EPOCH":9169,"BSTAR":0,"MEAN_MOTION_DOT":-2e-8,"MEAN_MOTION_DDOT":0},{"OBJECT_NAME":"GPS BIIF-9","OBJECT_ID":"2015-013A","EPOCH":"2026-09-11T07:33:56.458656","MEAN_MOTION":2.00570877,"ECCENTRICITY":0.01127711,"INCLINATION":53.158,"RA_OF_ASC_NODE":200.6179,"ARG_OF_PERICENTER":41.0484,"MEAN_ANOMALY":319.7596,"EPHEMERIS_TYPE":0,"CLASSIFICATION_TYPE":"U","NORAD_CAT_ID":40534,"ELEMENT_SET_NO":999,"REV_AT_EPOCH":8355,"BSTAR":0,"MEAN_MOTION_DOT":-1.5e-7,"MEAN_MOTION_DDOT":0},{"OBJECT_NAME":"GSAT0203 (GALILEO 7)","OBJECT_ID":"2015-017A","EPOCH":"2026-09-09T02:15:32.037120","MEAN_MOTION":1.70476378,"ECCENTRICITY":0.000446,"INCLINATION":56.7527,"RA_OF_ASC_NODE":339.3092,"ARG_OF_PERICENTER":251.6359,"MEAN_ANOMALY":108.3566,"EPHEMERIS_TYPE":0,"CLASSIFICATION_TYPE":"U","NORAD_CAT_ID":40544,"ELEMENT_SET_NO":999,"REV_AT_EPOCH":7063,"BSTAR":0,"MEAN_MOTION_DOT":-0.000001,"MEAN_MOTION_DDOT":0},{"OBJECT_NAME":"GSAT0204 (GALILEO 8)","OBJECT_ID":"2015-017B","EPOCH":"2026-09-11T16:42:58.663584","MEAN_MOTION":1.70475843,"ECCENTRICITY":0.00048357,"INCLINATION":56.7582,"RA_OF_ASC_NODE":339.2572,"ARG_OF_PERICENTER":241.3315,"MEAN_ANOMALY":118.6677,"EPHEMERIS_TYPE":0,"CLASSIFICATION_TYPE":"U","NORAD_CAT_ID":40545,"ELEMENT_SET_NO":999,"REV_AT_EPOCH":3372,"BSTAR":0,"MEAN_MOTION_DOT":-0.00000103,"MEAN_MOTION_DDOT":0},{"OBJECT_NAME":"GPS BIIF-10","OBJECT_ID":"2015-033A","EPOCH":"2026-09-10T23:31:43.849632","MEAN_MOTION":2.00551728,"ECCENTRICITY":0.01170888,"INCLINATION":53.9223,"RA_OF_ASC_NODE":263.5429,"ARG_OF_PERICENTER":30.5092,"MEAN_ANOMALY":330.1897,"EPHEMERIS_TYPE":0,"CLASSIFICATION_TYPE":"U","NORAD_CAT_ID":40730,"ELEMENT_SET_NO":999,"REV_AT_EPOCH":8171,"BSTAR":0,"MEAN_MOTION_DOT":-9e-8,"MEAN_MOTION_DDOT":0},{"OBJECT_NAME":"METEOSAT-11 (MSG-4)","OBJECT_ID":"2015-034A","EPOCH":"2026-09-12T05:23:38.233248","MEAN_MOTION":1.00272237,"ECCENTRICITY":0.0000644,"INCLINATION":3.4138,"RA_OF_ASC_NODE":70.4786,"ARG_OF_PERICENTER":71.3872,"MEAN_ANOMALY":299.5187,"EPHEMERIS_TYPE":0,"CLASSIFICATION_TYPE":"U","NORAD_CAT_ID":40732,"ELEMENT_SET_NO":999,"REV_AT_EPOCH":809,"BSTAR":0,"MEAN_MOTION_DOT":4.9e-7,"MEAN_MOTION_DDOT":0},{"OBJECT_NAME":"GSAT0206 (GALILEO 10)","OBJECT_ID":"2015-045B","EPOCH":"2026-09-11T02:21:44.065152","MEAN_MOTION":1.70473136,"ECCENTRICITY":0.00025404,"INCLINATION":54.9256,"RA_OF_ASC_NODE":219.233,"ARG_OF_PERICENTER":349.0399,"MEAN_ANOMALY":10.9008,"EPHEMERIS_TYPE":0,"CLASSIFICATION_TYPE":"U","NORAD_CAT_ID":40890,"ELEMENT_SET_NO":999,"REV_AT_EPOCH":6850,"BSTAR":0,"MEAN_MOTION_DOT":-2e-8,"MEAN_MOTION_DDOT":0},{"OBJECT_NAME":"GPS BIIF-11","OBJECT_ID":"2015-062A","EPOCH":"2026-09-12T00:42:05.699232","MEAN_MOTION":2.00566941,"ECCENTRICITY":0.01158209,"INCLINATION":57.0156,"RA_OF_ASC_NODE":27.4729,"ARG_OF_PERICENTER":231.0497,"MEAN_ANOMALY":127.9112,"EPHEMERIS_TYPE":0,"CLASSIFICATION_TYPE":"U","NORAD_CAT_ID":41019,"ELEMENT_SET_NO":999,"REV_AT_EPOCH":7957,"BSTAR":0,"MEAN_MOTION_DOT":-9.2e-7,"MEAN_MOTION_DDOT":0},{"OBJECT_NAME":"ELEKTRO-L 2","OBJECT_ID":"2015-074A","EPOCH":"2026-09-12T06:59:36.529728","MEAN_MOTION":1.00272019,"ECCENTRICITY":0.00018481,"INCLINATION":6.9079,"RA_OF_ASC_NODE":69.4189,"ARG_OF_PERICENTER":196.4029,"MEAN_ANOMALY":175.8604,"EPHEMERIS_TYPE":0,"CLASSIFICATION_TYPE":"U","NORAD_CAT_ID":41105,"ELEMENT_SET_NO":999,"REV_AT_EPOCH":3938,"BSTAR":0,"MEAN_MOTION_DOT":-0.00000129,"MEAN_MOTION_DDOT":0},{"OBJECT_NAME":"GSAT0209 (GALILEO 12)","OBJECT_ID":"2015-079A","EPOCH":"2026-09-10T02:15:20.222784","MEAN_MOTION":1.70473608,"ECCENTRICITY":0.00036987,"INCLINATION":55.8813,"RA_OF_ASC_NODE":98.9312,"ARG_OF_PERICENTER":16.5279,"MEAN_ANOMALY":343.5809,"EPHEMERIS_TYPE":0,"CLASSIFICATION_TYPE":"U","NORAD_CAT_ID":41174,"ELEMENT_SET_NO":999,"REV_AT_EPOCH":6622,"BSTAR":0,"MEAN_MOTION_DOT":2.1e-7,"MEAN_MOTION_DDOT":0},{"OBJECT_NAME":"GSAT0208 (GALILEO 11)","OBJECT_ID":"2015-079B","EPOCH":"2026-09-10T21:37:29.789472","MEAN_MOTION":1.70473654,"ECCENTRICITY":0.00051705,"INCLINATION":55.879,"RA_OF_ASC_NODE":98.9063,"ARG_OF_PERICENTER":45.8921,"MEAN_ANOMALY":314.2454,"EPHEMERIS_TYPE":0,"CLASSIFICATION_TYPE":"U","NORAD_CAT_ID":41175,"ELEMENT_SET_NO":999,"REV_AT_EPOCH":6665,"BSTAR":0,"MEAN_MOTION_DOT":1.8e-7,"MEAN_MOTION_DDOT":0},{"OBJECT_NAME":"GPS BIIF-12","OBJECT_ID":"2016-007A","EPOCH":"2026-09-11T14:52:06.377664","MEAN_MOTION":2.0057275,"ECCENTRICITY":0.00974933,"INCLINATION":55.5828,"RA_OF_ASC_NODE":86.0329,"ARG_OF_PERICENTER":247.2191,"MEAN_ANOMALY":111.8125,"EPHEMERIS_TYPE":0,"CLASSIFICATION_TYPE":"U","NORAD_CAT_ID":41328,"ELEMENT_SET_NO":999,"REV_AT_EPOCH":7757,"BSTAR":0,"MEAN_MOTION_DOT":7e-8,"MEAN_MOTION_DDOT":0},{"OBJECT_NAME":"GSAT0211 (GALILEO 14)","OBJECT_ID":"2016-030A","EPOCH":"2026-09-11T14:39:28.172736","MEAN_MOTION":1.70473146,"ECCENTRICITY":0.0003775,"INCLINATION":55.0761,"RA_OF_ASC_NODE":219.3188,"ARG_OF_PERICENTER":332.653,"MEAN_ANOMALY":27.2735,"EPHEMERIS_TYPE":0,"CLASSIFICATION_TYPE":"U","NORAD_CAT_ID":41549,"ELEMENT_SET_NO":999,"REV_AT_EPOCH":6414,"BSTAR":0,"MEAN_MOTION_DOT":-1e-8,"MEAN_MOTION_DDOT":0},{"OBJECT_NAME":"GSAT0210 (GALILEO 13)","OBJECT_ID":"2016-030B","EPOCH":"2026-09-11T06:45:02.825280","MEAN_MOTION":1.70473599,"ECCENTRICITY":0.0004075,"INCLINATION":55.0753,"RA_OF_ASC_NODE":219.3259,"ARG_OF_PERICENTER":253.3502,"MEAN_ANOMALY":106.5514,"EPHEMERIS_TYPE":0,"CLASSIFICATION_TYPE":"U","NORAD_CAT_ID":41550,"ELEMENT_SET_NO":999,"REV_AT_EPOCH":6413,"BSTAR":0,"MEAN_MOTION_DOT":-2e-8,"MEAN_MOTION_DDOT":0},{"OBJECT_NAME":"INSAT-3DR","OBJECT_ID":"2016-054A","EPOCH":"2026-09-12T03:32:21.720768","MEAN_MOTION":1.00272231,"ECCENTRICITY":0.00116691,"INCLINATION":0.0257,"RA_OF_ASC_NODE":109.2023,"ARG_OF_PERICENTER":155.5973,"MEAN_ANOMALY":213.466,"EPHEMERIS_TYPE":0,"CLASSIFICATION_TYPE":"U","NORAD_CAT_ID":41752,"ELEMENT_SET_NO":999,"REV_AT_EPOCH":3669,"BSTAR":0,"MEAN_MOTION_DOT":-9.2e-7,"MEAN_MOTION_DDOT":0},{"OBJECT_NAME":"GSAT0207 (GALILEO 15)","OBJECT_ID":"2016-069A","EPOCH":"2026-09-11T13:26:53.992896","MEAN_MOTION":1.7047375,"ECCENTRICITY":0.00030374,"INCLINATION":55.5533,"RA_OF_ASC_NODE":98.6945,"ARG_OF_PERICENTER":359.7632,"MEAN_ANOMALY":0.3287,"EPHEMERIS_TYPE":0,"CLASSIFICATION_TYPE":"U","NORAD_CAT_ID":41859,"ELEMENT_SET_NO":999,"REV_AT_EPOCH":6087,"BSTAR":0,"MEAN_MOTION_DOT":1.5e-7,"MEAN_MOTION_DDOT":0},{"OBJECT_NAME":"GSAT0212 (GALILEO 16)","OBJECT_ID":"2016-069B","EPOCH":"2026-09-10T05:46:21.372960","MEAN_MOTION":1.70473888,"ECCENTRICITY":0.0003965,"INCLINATION":55.5502,"RA_OF_ASC_NODE":98.7259,"ARG_OF_PERICENTER":39.3601,"MEAN_ANOMALY":320.765,"EPHEMERIS_TYPE":0,"CLASSIFICATION_TYPE":"U","NORAD_CAT_ID":41860,"ELEMENT_SET_NO":999,"REV_AT_EPOCH":6110,"BSTAR":0,"MEAN_MOTION_DOT":1.9e-7,"MEAN_MOTION_DDOT":0},{"OBJECT_NAME":"GSAT0213 (GALILEO 17)","OBJECT_ID":"2016-069C","EPOCH":"2026-09-08T20:20:49.486272","MEAN_MOTION":1.70474341,"ECCENTRICITY":0.00021681,"INCLINATION":55.552,"RA_OF_ASC_NODE":98.7726,"ARG_OF_PERICENTER":331.3762,"MEAN_ANOMALY":28.7083,"EPHEMERIS_TYPE":0,"CLASSIFICATION_TYPE":"U","NORAD_CAT_ID":41861,"ELEMENT_SET_NO":999,"REV_AT_EPOCH":6094,"BSTAR":0,"MEAN_MOTION_DOT":2.1e-7,"MEAN_MOTION_DDOT":0},{"OBJECT_NAME":"GSAT0214 (GALILEO 18)","OBJECT_ID":"2016-069D","EPOCH":"2026-09-10T04:00:59.530752","MEAN_MOTION":1.70474047,"ECCENTRICITY":0.00023729,"INCLINATION":55.5429,"RA_OF_ASC_NODE":98.7287,"ARG_OF_PERICENTER":358.3065,"MEAN_ANOMALY":1.789,"EPHEMERIS_TYPE":0,"CLASSIFICATION_TYPE":"U","NORAD_CAT_ID":41862,"ELEMENT_SET_NO":999,"REV_AT_EPOCH":6109,"BSTAR":0,"MEAN_MOTION_DOT":2e-7,"MEAN_MOTION_DDOT":0},{"OBJECT_NAME":"GOES 16","OBJECT_ID":"2016-071A","EPOCH":"2026-09-12T06:19:38.851968","MEAN_MOTION":1.00272465,"ECCENTRICITY":0.00016957,"INCLINATION":0.5508,"RA_OF_ASC_NODE":84.58,"ARG_OF_PERICENTER":131.1654,"MEAN_ANOMALY":125.766,"EPHEMERIS_TYPE":0,"CLASSIFICATION_TYPE":"U","NORAD_CAT_ID":41866,"ELEMENT_SET_NO":999,"REV_AT_EPOCH":3597,"BSTAR":0,"MEAN_MOTION_DOT":-0.00000106,"MEAN_MOTION_DDOT":0},{"OBJECT_NAME":"GSAT-17","OBJECT_ID":"2017-040B","EPOCH":"2026-09-12T02:22:25.608864","MEAN_MOTION":1.0027043,"ECCENTRICITY":0.00039551,"INCLINATION":0.0025,"RA_OF_ASC_NODE":171.0648,"ARG_OF_PERICENTER":81.6474,"MEAN_ANOMALY":227.5013,"EPHEMERIS_TYPE":0,"CLASSIFICATION_TYPE":"U","NORAD_CAT_ID":42815,"ELEMENT_SET_NO":999,"REV_AT_EPOCH":3366,"BSTAR":0,"MEAN_MOTION_DOT":-0.00000273,"MEAN_MOTION_DDOT":0},{"OBJECT_NAME":"GSAT0215 (GALILEO 19)","OBJECT_ID":"2017-079A","EPOCH":"2026-09-11T05:49:50.115360","MEAN_MOTION":1.70473895,"ECCENTRICITY":0.00033461,"INCLINATION":55.0541,"RA_OF_ASC_NODE":219.1395,"ARG_OF_PERICENTER":281.3163,"MEAN_ANOMALY":78.5923,"EPHEMERIS_TYPE":0,"CLASSIFICATION_TYPE":"U","NORAD_CAT_ID":43055,"ELEMENT_SET_NO":999,"REV_AT_EPOCH":5445,"BSTAR":0,"MEAN_MOTION_DOT":-2e-8,"MEAN_MOTION_DDOT":0}]